Flag for Germany Weather past 2 weeks in Waren (Müritz), Mecklenburg-Western Pomerania, Germany

Now
37 °F

Scattered clouds.


Feels Like: 29 °F
Forecast: 32 / 42 °F
Wind: 14 mph from West

Location: Laage

Current Time: Mar 3, 2015 at 8:56:18 AM

Latest Report: Mar 3, 2015 at 8:20 AM


Visibility: N/A

Pressure: 29.83 "Hg

Humidity: 87%

Dew point: 34 °F

Location of Waren (Müritz)Location

Historic Weather in Waren (Müritz) — Graph

°F

Waren (Müritz) temperature yesterday

Maximum temperature yesterday: 43 °F (at 3:20 PM)
Minimum temperature yesterday: 36 °F (at 12:20 AM)
Average temperature yesterday: 39 °F

Past Weeks' High & Low Weather Summary

 TemperatureHumidityPressure
High48 °F (Feb 26, 1:20 PM)100% (Feb 18, 2:20 AM)30.66 "Hg (Feb 18, 2:20 AM)
Low27 °F (Feb 17, 5:20 AM)43% (Feb 19, 1:20 PM)29.24 "Hg (Feb 21, 2:20 PM)
Average37 °F82%29.88 "Hg
* Reported Feb 16 7:20 AM — Mar 3 7:20 AM, Waren (Müritz), Weather by CustomWeather, © 2015

Note: Actual official high and low records may vary slightly from our data, if they occured in-between our weather recording intervals... More about our weather records

Advertising

Waren (Müritz) weather history for previous 24 hours

 ConditionsComfort  
Time TempWeatherWind HumidityBarometerVisibility
7:20 AM
Tue, Mar 3
36 °FPartly sunny.15 mph93%29.80 "HgN/A
6:20 AM36 °FLight rain. Passing clouds.14 mph93%29.80 "HgN/A
5:20 AM36 °FPassing clouds.14 mph93%29.77 "HgN/A
4:20 AM36 °FPassing clouds.17 mph87%29.74 "HgN/A
3:20 AM36 °FPassing clouds.12 mph87%29.71 "HgN/A
2:20 AM36 °FPassing clouds.12 mph81%29.68 "HgN/A
1:20 AM37 °FPassing clouds.15 mph81%29.68 "HgN/A
12:20 AM37 °FPassing clouds.15 mph81%29.65 "HgN/A
11:20 PM
Mon, Mar 2
37 °FPassing clouds.14 mph81%29.62 "HgN/A
10:20 PM37 °FPassing clouds.14 mph81%29.62 "HgN/A
9:20 PM37 °FPassing clouds.13 mph75%29.59 "HgN/A
8:20 PM39 °FPassing clouds.16 mph70%29.56 "HgN/A
7:20 PM39 °FPassing clouds.16 mph75%29.56 "HgN/A
6:20 PM41 °FPassing clouds.23 mph70%29.53 "HgN/A
5:20 PM43 °FBroken clouds.21 mph66%29.50 "HgN/A
4:20 PM43 °FSprinkles. Partly sunny.17 mph66%29.47 "HgN/A
3:20 PM43 °FBroken clouds.22 mph71%29.45 "HgN/A
2:20 PM41 °FBroken clouds.23 mph81%29.42 "HgN/A
1:20 PM39 °FPartly sunny.21 mph87%29.42 "Hg5 mi
12:20 PM41 °FPartly sunny.17 mph87%29.39 "HgN/A
11:20 AM39 °FSprinkles. Broken clouds.23 mph87%29.36 "Hg5 mi
10:55 AM39 °FBroken clouds.22 mph87%29.36 "HgN/A
10:20 AM39 °FSprinkles. Broken clouds.21 mph87%29.33 "Hg5 mi
9:56 AM39 °FSprinkles. Partly sunny.23 mph87%29.33 "Hg5 mi
9:20 AM39 °FSprinkles. Partly sunny.18 mph87%29.30 "Hg4 mi
8:57 AM39 °FSprinkles. Partly sunny.21 mph87%29.30 "Hg4 mi
8:20 AM39 °FSprinkles. Partly sunny.8 mph93%29.27 "Hg3 mi
Weather by CustomWeather, © 2015

See weather overviewHow to use our weather pages